Lander, WY

6:16 AM MST on February 11, 2016 (GMT -0700)
Hunt

Weather History for KLND - April, 2014

Change the Weather History Date:

Wednesday, April 30, 2014

  Actual Average Record
Temperature  
Mean Temperature 44 °F 48 °F  
Max Temperature 54 °F 61 °F 80 °F (1987)
Min Temperature 34 °F 35 °F 6 °F (1909)
Degree Days  
Heating Degree Days 21 17  
Month to date heating degree days 621 634  
Since 1 July heating degree days 7252 7254  
Cooling Degree Days 0 0  
Month to date cooling degree days 0 0  
Year to date cooling degree days 0 0  
Moisture  
Dew Point 19 °F    
Average Humidity 49    
Maximum Humidity 82    
Minimum Humidity 16    
Precipitation  
Precipitation T in 0.08 in 2.41 in (1895)
Month to date precipitation 0.70 1.87  
Year to date precipitation 2.68 4.02  
Snow  
Snow T in 0.50 in - ()
Month to date snowfall 4.3 16.8  
Since 1 July snowfall 73.5 86.5  
Snow Depth 0.00 in    
Sea Level Pressure  
Sea Level Pressure 30.40 in    
Wind  
Wind Speed 13 mph (NNW)    
Max Wind Speed 33 mph    
Max Gust Speed 43 mph    
Visibility 10 miles    
Events Snow    
T = Trace of Precipitation, MM = Missing Value Source: NWS Daily Summary

Daily Weather History Graph

Daily Weather History Graph

Search for Another Location

Airport or City:

Trip Planner

Search our weather history database for the weather conditions in past years. The results will help you decide how hot, cold, wet, or windy it might be!

Date:

Astronomy

Apr. 30, 2014 Rise Set
Actual Time 6:10 AM MDT 8:14 PM MDT
Civil Twilight 5:39 AM MDT 8:45 PM MDT
Nautical Twilight 5:01 AM MDT 9:23 PM MDT
Astronomical Twilight 4:20 AM MDT 10:05 PM MDT
Moon 7:13 AM MDT (4/30) 9:57 PM MDT (4/30)
Length of Visible Light 15h 05m
Length of Day
14h 04m
Waxing Crescent, 3% of the Moon is Illuminated
Apr 30
Waxing Crescent
May 6
First Quarter
May 14
Full
May 21
Last Quarter
May 28
New

Hourly Weather History & Observations

Time (MDT) Temp. Windchill Dew Point Humidity Pressure Visibility Wind Dir Wind Speed Gust Speed Precip Events Conditions
12:25 AM 36.0 °F 29.0 °F 30.0 °F 79% 30.46 in 10.0 mi NNW 9.2 mph - N/A   Overcast
12:53 AM 35.1 °F - 30.0 °F 82% 30.46 in 10.0 mi Calm Calm - N/A   Overcast
1:11 AM 35.1 °F 31.0 °F 30.0 °F 82% 30.46 in 10.0 mi NW 4.6 mph - N/A   Overcast
1:53 AM 36.0 °F 33.3 °F 28.9 °F 76% 30.45 in 10.0 mi WNW 3.5 mph - N/A   Overcast
2:53 AM 37.0 °F 29.8 °F 28.0 °F 70% 30.43 in 10.0 mi NW 10.4 mph - N/A   Overcast
3:53 AM 35.1 °F 31.0 °F 30.0 °F 82% 30.44 in 10.0 mi WSW 4.6 mph - 0.00 in   Overcast
4:53 AM 35.6 °F 29.2 °F 28.4 °F 75% 30.45 in 4.0 mi NNE 8.1 mph - N/A Snow Light Snow
5:16 AM 37.0 °F 31.6 °F 27.0 °F 67% 30.44 in 10.0 mi North 6.9 mph - 0.00 in   Overcast
5:53 AM 35.1 °F 30.1 °F 28.9 °F 78% 30.45 in 10.0 mi NNE 5.8 mph - 0.00 in   Overcast
6:53 AM 34.0 °F 28.8 °F 28.0 °F 79% 30.47 in 10.0 mi West 5.8 mph - N/A   Overcast
7:53 AM 37.9 °F 30.0 °F 24.1 °F 57% 30.45 in 10.0 mi WNW 12.7 mph - N/A   Partly Cloudy
8:53 AM 42.8 °F 34.8 °F 19.4 °F 39% 30.45 in 10.0 mi NW 17.3 mph 23.0 mph N/A   Mostly Cloudy
9:53 AM - - - N/A% 30.44 in - North - - N/A   Clear
10:53 AM 46.9 °F - 12.9 °F 25% 30.43 in 10.0 mi North 21.9 mph 34.5 mph N/A   Partly Cloudy
11:53 AM 48.0 °F - 10.0 °F 22% 30.42 in 10.0 mi North 24.2 mph 35.7 mph N/A   Partly Cloudy
12:53 PM 51.1 °F - 9.0 °F 18% 30.38 in 10.0 mi North 29.9 mph 36.8 mph N/A   Clear
1:53 PM 52.0 °F - 9.0 °F 18% 30.37 in 10.0 mi North 20.7 mph 40.3 mph N/A   Clear
2:53 PM 53.1 °F - 9.0 °F 17% 30.34 in 10.0 mi North 26.5 mph 41.4 mph N/A   Clear
3:53 PM 53.1 °F - 10.9 °F 19% 30.33 in 10.0 mi NNE 24.2 mph 35.7 mph N/A   Clear
4:53 PM 52.0 °F - 12.0 °F 20% 30.32 in 10.0 mi NNE 17.3 mph 26.5 mph N/A   Clear
5:53 PM 52.0 °F - 10.0 °F 19% 30.32 in 10.0 mi North 17.3 mph 29.9 mph N/A   Clear
6:53 PM 51.1 °F - 12.0 °F 21% 30.32 in 10.0 mi North 15.0 mph 23.0 mph N/A   Clear
7:53 PM 46.9 °F - 12.0 °F 24% 30.33 in 10.0 mi NNE 11.5 mph 20.7 mph N/A   Clear
8:53 PM 46.9 °F - 10.0 °F 22% 30.32 in 10.0 mi North 4.6 mph - N/A   Clear
9:53 PM 42.1 °F 36.1 °F 12.0 °F 29% 30.37 in 10.0 mi WSW 10.4 mph - N/A   Clear
10:53 PM 39.0 °F 34.0 °F 12.9 °F 34% 30.35 in 10.0 mi WSW 6.9 mph - N/A   Clear
11:53 PM 37.0 °F 30.4 °F 14.0 °F 39% 30.34 in 10.0 mi WSW 9.2 mph - N/A   Clear